• In Denmark
  • List of Countries
  • For 7 days
  • Water Temperature
  • Satellite Maps
  • Weather Map
  • Weather Widgets
  • user-avatar
    Login

    Hourly Weather Eisenstadt

    Today, 23 August, Wednesday

    Time Temperature Precipitation Wind Pressure Humidity
    00:00 +14°C° 0 mm 1 mps 724 mmHg 65%
    01:00 +14°C° 0 mm 1 mps 724 mmHg 66%
    02:00 +14°C° 0 mm 1 mps 724 mmHg 69%
    03:00 +13°C° 0 mm 1 mps 724 mmHg 71%
    04:00 +13°C° 0 mm 1 mps 724 mmHg 74%
    05:00 +14°C° 0 mm 1 mps 724 mmHg 71%
    06:00 +15°C° 0 mm 1 mps 725 mmHg 69%
    07:00 +16°C° 0 mm 1 mps 725 mmHg 66%
    08:00 +18°C° 0 mm 1 mps 725 mmHg 60%
    09:00 +19°C° 0 mm 2 mps 725 mmHg 53%
    10:00 +21°C° 0 mm 2 mps 725 mmHg 47%
    11:00 +23°C° 0 mm 2 mps 725 mmHg 45%
    12:00 +23°C° 0 mm 2 mps 725 mmHg 43%
    13:00 +24°C° 0 mm 2 mps 725 mmHg 41%
    14:00 +24°C° 0 mm 2 mps 725 mmHg 41%
    15:00 +24°C° 0 mm 1 mps 724 mmHg 41%
    16:00 +25°C° 0 mm 1 mps 724 mmHg 41%
    17:00 +23°C° 0 mm 1 mps 724 mmHg 46%
    18:00 +21°C° 0 mm 1 mps 724 mmHg 51%
    19:00 +19°C° 0 mm 1 mps 724 mmHg 57%
    20:00 +18°C° 0 mm 1 mps 724 mmHg 59%
    21:00 +16°C° 0 mm 1 mps 724 mmHg 61%
    22:00 +14°C° 0 mm 0 mps 724 mmHg 63%
    23:00 +15°C° 0 mm 1 mps 724 mmHg 64%

    Tomorrow, 24 August, Thursday

    Time Temperature Precipitation Wind Pressure Humidity
    00:00 +15°C° 0 mm 1 mps 724 mmHg 65%
    01:00 +14°C° 0 mm 1 mps 724 mmHg 66%
    02:00 +14°C° 0 mm 1 mps 724 mmHg 67%
    03:00 +14°C° 0 mm 1 mps 724 mmHg 67%
    04:00 +13°C° 0 mm 1 mps 724 mmHg 68%
    05:00 +14°C° 0 mm 0 mps 724 mmHg 65%
    06:00 +15°C° 0 mm 0 mps 724 mmHg 62%
    07:00 +16°C° 0 mm 0 mps 725 mmHg 58%
    08:00 +21°C° 0 mm 1 mps 725 mmHg 53%
    09:00 +23°C° 0 mm 1 mps 725 mmHg 47%
    10:00 +26°C° 0 mm 1 mps 725 mmHg 41%
    11:00 +27°C° 0 mm 1 mps 725 mmHg 39%
    12:00 +28°C° 0 mm 1 mps 725 mmHg 37%
    13:00 +30°C° 0 mm 2 mps 725 mmHg 36%
    14:00 +30°C° 0 mm 2 mps 725 mmHg 36%
    15:00 +30°C° 0 mm 2 mps 724 mmHg 37%
    16:00 +30°C° 0 mm 2 mps 724 mmHg 37%
    17:00 +28°C° 0 mm 2 mps 724 mmHg 44%
    18:00 +26°C° 0 mm 1 mps 724 mmHg 50%
    19:00 +24°C° 0 mm 1 mps 724 mmHg 56%
    20:00 +23°C° 0 mm 1 mps 724 mmHg 58%
    21:00 +22°C° 0 mm 1 mps 724 mmHg 60%
    22:00 +22°C° 0 mm 1 mps 724 mmHg 61%
    23:00 +21°C° 0 mm 1 mps 724 mmHg 63%

    Day after tomorrow, 25 August, Friday

    Time Temperature Precipitation Wind Pressure Humidity
    00:00 +21°C° 0 mm 1 mps 724 mmHg 64%
    01:00 +21°C° 0 mm 1 mps 724 mmHg 65%
    02:00 +20°C° 0 mm 1 mps 724 mmHg 68%
    03:00 +20°C° 0 mm 1 mps 724 mmHg 70%
    04:00 +19°C° 0 mm 1 mps 724 mmHg 73%
    05:00 +20°C° 0 mm 1 mps 724 mmHg 70%
    06:00 +21°C° 0 mm 1 mps 725 mmHg 67%
    07:00 +22°C° 0 mm 1 mps 725 mmHg 65%
    08:00 +25°C° 0 mm 1 mps 725 mmHg 58%
    09:00 +27°C° 0 mm 1 mps 725 mmHg 51%
    10:00 +29°C° 0 mm 1 mps 726 mmHg 44%
    11:00 +30°C° 0 mm 1 mps 725 mmHg 41%
    12:00 +31°C° 0 mm 1 mps 725 mmHg 38%
    13:00 +32°C° 0 mm 1 mps 725 mmHg 34%
    14:00 +32°C° 0 mm 1 mps 725 mmHg 34%
    15:00 +32°C° 0 mm 1 mps 725 mmHg 34%
    16:00 +32°C° 0 mm 1 mps 724 mmHg 33%
    17:00 +30°C° 0 mm 1 mps 724 mmHg 39%
    18:00 +28°C° 0 mm 1 mps 724 mmHg 45%
    19:00 +25°C° 0 mm 1 mps 724 mmHg 51%
    20:00 +25°C° 0 mm 1 mps 724 mmHg 54%
    21:00 +24°C° 0 mm 1 mps 724 mmHg 56%
    22:00 +23°C° 0 mm 1 mps 724 mmHg 59%
    23:00 +23°C° 0 mm 1 mps 724 mmHg 61%

    26 August, Saturday

    Time Temperature Precipitation Wind Pressure Humidity
    00:00 +22°C° 0 mm 1 mps 724 mmHg 62%
    01:00 +22°C° 0 mm 1 mps 724 mmHg 63%
    02:00 +21°C° 0 mm 1 mps 724 mmHg 64%
    03:00 +21°C° 0 mm 1 mps 724 mmHg 65%
    04:00 +21°C° 0 mm 1 mps 724 mmHg 66%
    05:00 +22°C° 0 mm 1 mps 724 mmHg 64%
    06:00 +23°C° 0 mm 1 mps 724 mmHg 62%
    07:00 +24°C° 0 mm 1 mps 724 mmHg 60%
    08:00 +26°C° 0 mm 1 mps 725 mmHg 53%
    09:00 +28°C° 0 mm 1 mps 725 mmHg 47%
    10:00 +31°C° 0 mm 1 mps 725 mmHg 40%
    11:00 +32°C° 0 mm 1 mps 725 mmHg 36%
    12:00 +34°C° 0 mm 2 mps 725 mmHg 33%
    13:00 +35°C° 0 mm 2 mps 724 mmHg 29%
    14:00 +35°C° 0 mm 2 mps 724 mmHg 29%
    15:00 +35°C° 0 mm 2 mps 724 mmHg 29%
    16:00 +35°C° 0 mm 2 mps 724 mmHg 28%
    17:00 +32°C° 0 mm 2 mps 723 mmHg 34%
    18:00 +29°C° 0 mm 2 mps 723 mmHg 40%
    19:00 +27°C° 0 mm 1 mps 723 mmHg 46%
    20:00 +26°C° 0 mm 2 mps 723 mmHg 49%
    21:00 +25°C° 0 mm 2 mps 723 mmHg 51%
    22:00 +24°C° 0 mm 2 mps 723 mmHg 54%
    23:00 +24°C° 0 mm 2 mps 723 mmHg 55%

    27 August, Sunday

    Time Temperature Precipitation Wind Pressure Humidity
    00:00 +24°C° 0 mm 1 mps 723 mmHg 56%
    01:00 +23°C° 0 mm 1 mps 723 mmHg 56%
    02:00 +23°C° 0 mm 1 mps 723 mmHg 57%
    03:00 +22°C° 0 mm 1 mps 723 mmHg 59%
    04:00 +22°C° 0 mm 1 mps 722 mmHg 60%
    05:00 +23°C° 0 mm 1 mps 723 mmHg 59%
    06:00 +24°C° 0 mm 1 mps 723 mmHg 58%
    07:00 +25°C° 0 mm 1 mps 723 mmHg 57%
    08:00 +27°C° 0 mm 1 mps 723 mmHg 50%
    09:00 +30°C° 0 mm 1 mps 723 mmHg 43%
    10:00 +32°C° 0 mm 1 mps 723 mmHg 37%
    11:00 +34°C° 0 mm 2 mps 723 mmHg 33%
    12:00 +35°C° 0 mm 2 mps 723 mmHg 30%
    13:00 +37°C° 0 mm 3 mps 723 mmHg 27%
    14:00 +36°C° 0 mm 3 mps 722 mmHg 27%
    15:00 +36°C° 0 mm 2 mps 722 mmHg 27%
    16:00 +36°C° 0 mm 2 mps 722 mmHg 27%
    17:00 +34°C° 0 mm 2 mps 721 mmHg 32%
    18:00 +30°C° 0 mm 2 mps 721 mmHg 38%
    19:00 +28°C° 0 mm 1 mps 721 mmHg 43%
    20:00 +27°C° 0 mm 1 mps 721 mmHg 46%
    21:00 +26°C° 0 mm 2 mps 721 mmHg 48%
    22:00 +25°C° 0 mm 2 mps 721 mmHg 50%
    23:00 +25°C° 0.1 mm 2 mps 721 mmHg 52%

    28 August, Monday

    Time Temperature Precipitation Wind Pressure Humidity
    00:00 +24°C° 0.1 mm 2 mps 721 mmHg 54%
    01:00 +24°C° 0.1 mm 2 mps 721 mmHg 56%
    02:00 +24°C° 0 mm 2 mps 721 mmHg 59%
    03:00 +23°C° 0 mm 2 mps 721 mmHg 62%
    04:00 +23°C° 0 mm 2 mps 721 mmHg 65%
    05:00 +23°C° 0 mm 2 mps 722 mmHg 66%
    06:00 +24°C° 0 mm 2 mps 722 mmHg 66%
    07:00 +25°C° 0 mm 3 mps 722 mmHg 67%
    08:00 +26°C° 0.1 mm 3 mps 722 mmHg 60%
    09:00 +27°C° 0.1 mm 3 mps 723 mmHg 54%
    10:00 +29°C° 0.1 mm 3 mps 723 mmHg 48%
    11:00 +30°C° 0 mm 4 mps 723 mmHg 44%
    12:00 +32°C° 0 mm 4 mps 723 mmHg 39%
    13:00 +33°C° 0 mm 5 mps 723 mmHg 35%
    14:00 +33°C° 0 mm 5 mps 723 mmHg 35%
    15:00 +32°C° 0 mm 5 mps 723 mmHg 36%
    16:00 +32°C° 0 mm 6 mps 723 mmHg 36%
    17:00 +29°C° 0 mm 5 mps 723 mmHg 44%
    18:00 +27°C° 0 mm 4 mps 723 mmHg 51%
    19:00 +25°C° 0 mm 3 mps 723 mmHg 58%
    20:00 +24°C° 0 mm 3 mps 724 mmHg 63%
    21:00 +21°C° 0 mm 3 mps 724 mmHg 68%
    22:00 +20°C° 0 mm 3 mps 724 mmHg 72%
    23:00 +20°C° 0 mm 2 mps 724 mmHg 75%
    Show more